Wind_Speed
7 7 7 5 4 4 4 4 4 4 5 5 6 6 6 6 6 7 7 8 8 9 9 9 9 10 11 11 12 13 13 13 14 15 16 17 16 17 17 17 18 17 17 17 16 16 15 15 14
6 7 7 6 5 5 5 5 5 5 6 7 7 7 6 6 6 6 7 7 8 9 10 9 10 11 12 12 13 14 15 15 16 16 17 17 18 18 18 19 19 19 18 18 18 17 17 16 16
6 7 7 6 5 5 5 5 6 6 6 7 7 7 6 6 6 7 7 8 9 9 9 10 11 11 12 12 13 14 15 16 17 18 18 18 19 20 20 20 21 21 21 20 20 19 18 18 17
7 7 7 6 6 6 6 6 6 6 7 7 7 6 7 7 7 8 8 9 9 9 9 9 10 11 12 13 14 15 16 17 18 19 19 19 19 20 21 22 22 22 22 22 22 21 21 20 19
7 8 7 7 6 7 6 7 7 7 7 7 6 7 7 7 8 8 8 8 8 8 8 9 9 10 11 12 13 14 15 16 17 18 18 19 21 21 22 23 23 23 23 23 24 23 22 21 20
8 8 7 7 7 7 7 7 7 7 7 6 6 7 6 7 7 8 7 7 8 8 8 9 9 10 11 12 13 13 14 16 17 17 19 20 21 22 23 24 25 25 25 24 24 24 24 23 21
10 9 8 8 9 8 7 7 8 8 7 7 6 6 6 7 7 7 7 7 8 8 9 9 10 10 11 11 12 13 14 15 16 17 18 20 21 22 23 24 25 25 25 26 26 25 24 23 22
11 10 9 9 9 9 8 8 8 8 8 7 7 7 7 6 6 6 6 7 8 8 9 10 10 11 12 12 12 13 14 14 15 17 18 19 20 21 22 24 25 25 25 25 26 25 25 25 23
12 11 11 10 9 9 9 9 8 8 8 8 7 7 7 6 6 6 6 7 8 9 10 11 11 12 13 13 14 14 15 15 16 17 18 19 20 21 22 23 24 24 25 25 25 25 26 25 24
13 12 11 11 10 10 10 9 8 8 9 9 8 8 8 7 6 6 7 7 9 9 10 11 12 13 13 14 14 15 16 16 17 17 18 19 20 21 21 22 23 24 25 25 25 25 26 25 25
14 13 13 12 11 10 10 10 9 9 9 9 8 8 7 6 6 6 7 8 9 10 11 12 12 13 14 14 15 16 16 17 18 19 19 19 20 20 21 21 22 23 24 25 25 25 25 25 25
15 14 13 12 11 10 10 10 9 9 9 9 8 7 7 6 6 7 7 8 9 10 11 12 13 14 14 15 15 16 17 18 19 20 20 19 20 20 20 21 21 22 23 24 25 26 25 25 26
16 15 14 13 12 11 11 10 10 10 9 9 8 8 7 7 6 6 7 8 9 10 11 12 12 14 15 15 16 17 18 18 19 19 20 20 19 19 20 20 20 21 23 24 25 26 27 27 27
16 15 15 14 13 12 11 11 10 9 9 9 8 8 7 7 6 7 7 8 9 10 11 12 13 14 15 16 17 17 18 19 19 20 20 20 20 20 19 19 20 20 21 23 25 26 27 28 28
16 15 15 14 13 12 12 11 10 10 10 9 8 8 7 7 7 7 7 8 9 10 11 12 13 15 16 16 17 18 19 20 20 21 21 20 20 20 19 19 19 20 21 22 24 26 28 29 29
16 15 14 14 13 13 12 11 11 10 10 9 8 8 8 8 7 7 7 8 9 9 11 12 14 15 16 17 18 19 19 20 21 21 21 20 20 19 19 19 19 19 19 20 22 24 26 28 30
16 15 15 15 14 13 12 11 11 10 10 9 8 8 8 8 7 7 8 8 9 10 11 13 14 16 17 17 18 19 20 20 21 21 21 20 20 19 18 18 17 17 18 19 21 23 25 27 29
16 15 15 15 15 14 13 12 11 11 10 9 8 8 8 8 8 7 8 8 9 10 11 13 15 16 17 17 18 19 20 21 21 22 21 20 19 18 18 17 16 16 17 18 19 21 23 25 27
17 16 15 15 15 14 12 11 11 11 10 9 8 8 8 8 8 8 8 8 9 10 11 13 15 17 17 18 18 19 20 21 22 22 22 20 19 18 17 16 15 14 14 15 17 19 21 24 26
16 15 15 15 15 13 11 11 11 10 10 9 9 9 8 8 8 8 8 8 8 9 11 13 15 16 18 18 19 19 20 21 22 22 22 21 20 19 17 16 14 13 13 14 15 17 19 21 25
15 15 15 15 14 12 10 10 10 10 10 9 9 8 8 8 8 7 7 7 8 9 11 13 14 16 18 18 19 19 20 21 22 22 22 21 20 19 17 15 14 13 12 12 13 15 17 19 22
15 15 14 14 12 11 10 10 10 10 10 9 9 8 8 8 7 7 7 7 8 9 11 12 14 16 18 19 19 20 21 21 22 22 22 22 21 20 18 16 14 13 11 10 11 13 15 17 19
14 14 13 12 11 10 10 10 10 10 10 9 8 8 8 7 7 7 7 7 8 9 10 12 14 16 18 19 19 20 21 21 22 22 22 22 21 20 18 16 14 11 10 9 10 11 13 16 17
14 13 13 11 10 10 9 9 10 10 10 9 8 8 8 7 7 7 7 8 8 9 10 12 13 15 17 19 20 20 21 21 22 22 22 22 21 20 19 17 14 11 9 8 8 9 12 13 16
14 12 11 10 10 10 9 9 9 10 10 9 9 8 8 8 7 7 7 8 8 9 10 11 13 15 16 18 20 21 21 22 22 22 22 21 21 20 19 17 14 12 10 7 6 7 9 11 14
12 11 11 10 10 10 9 10 10 10 10 10 9 8 8 8 8 7 7 7 8 9 10 11 13 14 16 18 19 21 22 22 22 23 22 21 20 20 19 18 15 13 11 8 7 6 7 9 12
11 10 10 10 10 10 9 9 10 11 11 11 10 9 9 8 8 8 7 7 8 9 10 11 12 14 15 17 19 20 21 22 22 22 22 22 21 20 19 18 16 14 12 9 7 6 6 7 9
11 10 10 10 9 8 9 10 11 11 12 11 11 10 9 9 9 8 7 7 8 9 9 10 12 13 15 16 18 19 21 22 22 22 22 22 21 20 19 18 17 15 13 10 8 6 5 6 8
10 9 9 9 9 8 9 11 11 12 12 12 12 11 10 10 9 8 8 8 8 9 9 10 11 13 14 15 17 18 20 21 21 21 22 22 21 21 20 19 18 16 14 12 9 6 4 4 6
10 10 9 9 9 9 10 11 11 12 12 12 12 12 11 11 10 9 9 8 8 9 9 10 11 13 14 15 16 17 18 20 21 21 21 21 21 21 20 20 19 17 15 13 10 7 5 3 4
Wind_Direction
356 5 11 12 7 357 348 336 328 325 328 328 326 323 320 316 311 304 301 302 301 300 301 300 296 289 288 287 286 289 284 281 278 272 267 262 259 257 256 254 252 251 249 248 248 249 249 253 254
349 354 356 357 357 347 337 328 327 326 326 328 329 327 325 323 321 316 311 308 307 306 300 299 299 294 291 288 287 288 285 282 279 276 273 270 265 260 259 257 254 253 251 249 248 248 249 250 251
336 338 341 343 339 335 329 322 320 324 324 328 329 328 329 328 327 325 322 319 315 312 307 303 300 296 293 292 289 287 286 283 282 279 276 271 267 264 262 260 257 254 252 251 249 248 247 246 246
322 321 323 326 325 321 317 317 317 321 322 327 327 327 330 331 330 329 328 325 324 320 316 311 306 302 300 298 295 292 288 284 282 280 279 274 271 268 266 264 262 257 255 254 252 251 248 247 244
308 312 316 313 305 311 315 316 317 320 318 319 321 323 327 331 332 334 335 333 332 330 325 319 314 309 304 301 297 295 293 288 285 282 280 277 272 268 266 266 263 261 258 255 253 251 248 246 244
298 301 305 299 297 303 310 314 313 315 312 313 317 319 323 329 332 334 337 337 337 337 334 329 323 317 311 307 304 300 296 292 287 285 282 279 275 271 268 266 264 262 260 257 253 250 247 245 243
289 293 293 290 292 299 304 308 309 308 308 311 311 314 320 326 329 332 336 340 342 341 338 334 329 325 321 316 313 309 304 298 294 290 285 282 279 275 270 267 264 262 261 258 253 249 247 243 238
280 287 289 289 291 299 299 299 303 303 306 309 313 318 317 324 329 334 339 342 343 341 337 334 331 328 326 322 318 315 310 305 300 296 292 288 283 279 275 269 266 263 262 259 253 249 244 242 238
275 279 283 288 293 302 301 296 299 300 304 306 308 314 320 323 327 333 339 341 341 339 337 335 333 332 330 327 323 319 314 310 307 301 297 293 288 283 278 273 268 264 261 258 254 249 244 242 238
272 274 280 284 293 302 304 297 295 295 300 301 303 309 313 318 320 328 336 339 340 340 338 337 335 333 331 329 328 325 320 315 311 307 301 295 291 286 282 276 270 265 261 258 253 248 245 242 237
268 273 278 281 289 297 301 298 289 289 294 300 301 302 307 310 314 322 329 335 338 339 339 337 334 333 332 332 330 328 323 318 315 312 307 300 293 288 285 280 273 267 261 257 253 246 244 240 237
263 266 272 279 283 289 294 294 290 290 294 297 299 294 298 301 308 316 323 330 334 336 337 335 334 334 334 332 331 330 327 323 319 316 310 304 297 292 288 282 274 267 261 256 251 246 243 239 235
261 263 267 273 279 283 285 286 287 288 286 292 297 290 291 293 302 312 318 325 329 331 333 332 334 336 335 334 333 332 330 327 323 320 314 308 302 296 292 285 276 268 261 256 251 247 243 239 236
255 258 262 270 273 276 280 280 283 282 283 289 287 286 287 292 301 306 313 323 326 328 332 333 335 337 337 336 336 335 333 331 328 324 319 313 306 301 296 288 280 272 264 257 251 247 243 240 236
249 253 259 265 270 273 275 275 278 278 279 285 278 279 284 290 296 300 310 319 323 327 333 337 338 340 339 338 337 336 334 332 331 328 324 318 311 306 300 293 283 274 265 258 254 247 243 239 235
244 250 257 262 267 269 270 271 270 272 277 283 278 276 282 287 292 299 309 317 322 327 333 337 340 340 340 340 339 337 336 335 334 331 328 322 316 310 304 298 288 278 268 259 254 249 244 240 237
242 247 253 260 263 266 267 267 267 269 275 282 279 277 281 285 291 298 308 315 321 328 335 337 341 343 342 342 341 339 339 339 338 336 333 327 322 315 309 302 294 283 271 261 255 249 245 241 237
238 242 248 254 257 261 265 266 266 266 273 278 276 275 277 282 290 299 306 313 321 330 336 338 342 344 344 343 343 343 343 343 342 340 337 332 328 322 315 309 299 287 273 263 258 251 246 241 235
232 236 241 246 252 257 261 263 262 263 265 269 271 272 275 281 289 298 304 311 320 330 336 339 343 345 345 344 344 345 345 345 344 343 342 338 333 328 322 315 306 293 277 264 258 253 247 241 234
229 234 238 244 249 253 260 262 258 259 260 263 267 268 273 279 285 294 301 309 319 328 334 341 345 348 348 347 346 346 347 347 347 346 346 343 339 334 328 322 313 300 281 267 259 254 248 241 235
226 230 236 243 248 251 256 258 259 260 260 262 265 266 269 274 280 287 295 306 316 325 334 341 346 349 351 350 349 349 349 349 349 348 347 345 343 340 334 326 318 308 292 273 260 253 246 240 234
223 228 234 240 245 249 252 252 257 257 259 262 263 264 266 270 274 280 290 303 314 325 335 341 346 349 351 352 352 352 352 351 351 351 351 349 347 346 341 332 324 316 302 283 266 254 246 239 233
219 225 233 240 247 254 254 251 251 252 254 257 260 261 264 266 269 276 289 301 313 324 333 340 345 349 352 353 354 354 354 354 354 354 354 354 353 352 348 342 334 325 312 294 274 254 246 239 233
221 226 234 240 249 257 253 248 248 251 253 256 259 259 260 263 267 275 288 300 311 322 332 340 346 350 353 355 356 356 356 356 356 356 356 356 356 357 356 351 345 338 328 310 283 260 249 241 235
221 226 233 244 252 253 250 249 249 250 252 253 255 256 258 262 265 274 286 296 308 320 331 339 345 349 353 356 358 359 359 359 359 359 358 358 359 360 360 358 356 351 342 325 297 271 256 243 236
220 223 228 239 251 255 252 250 250 251 252 253 254 256 258 260 262 271 282 292 305 318 329 336 343 348 352 355 358 359 360 360 0 1 1 0 0 2 2 2 2 359 351 337 315 286 264 248 237
220 224 232 240 248 251 250 247 250 250 252 254 255 257 257 256 259 267 277 289 303 316 326 333 340 347 350 354 357 358 0 1 1 2 3 4 3 2 2 3 3 1 356 346 327 303 271 251 237
218 224 236 242 250 254 251 251 252 251 254 254 254 256 256 253 257 262 273 287 301 313 322 329 337 343 348 352 355 358 0 2 2 3 4 5 5 5 4 3 3 2 359 354 341 320 287 257 240
219 225 236 242 248 253 256 255 252 253 254 255 254 255 254 252 254 262 271 284 297 309 316 324 332 339 344 348 352 356 359 1 3 4 5 6 8 8 8 7 7 6 4 0 354 339 314 276 248
229 231 238 246 253 255 258 257 254 255 255 255 254 254 253 250 251 259 269 279 292 303 311 319 327 335 340 344 348 352 356 359 1 3 5 7 9 10 9 9 10 10 9 8 5 359 341 304 259
Height
5897 5896 5895 5895 5895 5894 5893 5892 5891 5890 5889 5888 5887 5885 5885 5884 5883 5884 5880 5878 5877 5875 5874 5873 5872 5871 5870 5870 5869 5869 5868 5867 5867 5866 5866 5866 5866 5866 5866 5866 5867 5867 5868 5868 5869 5870 5870 5871 5872
5897 5896 5896 5895 5894 5893 5892 5891 5890 5889 5888 5887 5885 5884 5883 5882 5881 5879 5877 5876 5875 5873 5872 5871 5870 5869 5868 5867 5866 5866 5865 5864 5864 5863 5862 5862 5862 5862 5862 5862 5863 5863 5864 5865 5866 5867 5868 5868 5869
5897 5896 5896 5895 5893 5893 5892 5890 5889 5887 5886 5885 5884 5883 5882 5880 5879 5877 5876 5874 5873 5871 5870 5869 5867 5867 5866 5864 5864 5863 5862 5861 5861 5860 5859 5859 5859 5859 5858 5858 5859 5859 5860 5861 5862 5863 5864 5865 5866
5896 5896 5895 5894 5892 5892 5891 5889 5888 5886 5885 5884 5883 5882 5880 5879 5878 5876 5874 5873 5871 5869 5868 5867 5865 5864 5863 5862 5861 5860 5859 5858 5857 5856 5855 5855 5855 5854 5854 5854 5854 5855 5855 5857 5858 5859 5860 5861 5862
5895 5895 5894 5893 5891 5890 5889 5888 5886 5885 5884 5883 5882 5880 5879 5878 5876 5874 5872 5871 5869 5868 5866 5865 5863 5862 5861 5859 5858 5857 5855 5854 5853 5852 5851 5851 5850 5850 5850 5850 5850 5850 5851 5852 5853 5854 5856 5857 5859
5894 5893 5893 5891 5890 5889 5888 5886 5885 5884 5882 5881 5880 5879 5878 5876 5874 5873 5871 5870 5868 5866 5865 5863 5861 5860 5858 5857 5855 5854 5852 5851 5849 5848 5847 5846 5845 5845 5844 5844 5845 5845 5846 5847 5848 5849 5851 5853 5854
5893 5891 5890 5889 5888 5887 5886 5885 5884 5883 5881 5880 5879 5878 5876 5875 5873 5872 5870 5868 5867 5865 5863 5861 5859 5858 5856 5854 5852 5851 5849 5847 5846 5844 5843 5841 5840 5840 5839 5839 5839 5840 5840 5841 5842 5844 5845 5848 5850
5889 5890 5888 5887 5886 5886 5884 5883 5882 5881 5880 5879 5878 5877 5875 5874 5872 5870 5869 5867 5865 5864 5862 5860 5858 5856 5854 5852 5850 5848 5846 5844 5842 5840 5839 5837 5836 5834 5834 5833 5833 5834 5834 5835 5836 5838 5840 5842 5845
5886 5888 5886 5885 5884 5883 5882 5881 5880 5879 5878 5877 5876 5875 5874 5872 5871 5869 5868 5866 5864 5863 5860 5858 5856 5854 5852 5849 5847 5845 5843 5841 5838 5836 5834 5833 5831 5829 5828 5828 5828 5828 5828 5829 5831 5832 5834 5836 5839
5884 5884 5883 5883 5882 5881 5880 5879 5878 5878 5877 5876 5875 5873 5872 5871 5870 5868 5867 5865 5863 5861 5859 5857 5854 5852 5850 5847 5845 5842 5840 5837 5835 5832 5830 5828 5826 5824 5823 5822 5822 5822 5822 5823 5825 5826 5828 5831 5833
5880 5881 5880 5880 5879 5879 5878 5877 5876 5876 5875 5874 5873 5872 5871 5869 5868 5867 5865 5864 5862 5860 5858 5855 5853 5850 5848 5845 5842 5839 5837 5834 5831 5828 5826 5823 5821 5819 5818 5816 5816 5816 5816 5817 5819 5820 5822 5825 5828
5877 5877 5877 5877 5876 5876 5876 5875 5874 5874 5874 5873 5871 5870 5869 5868 5867 5865 5864 5863 5861 5858 5856 5854 5851 5848 5846 5843 5840 5837 5834 5830 5827 5824 5821 5819 5816 5814 5812 5811 5810 5810 5810 5811 5812 5814 5816 5819 5822
5873 5873 5874 5874 5874 5874 5874 5873 5872 5872 5871 5870 5869 5869 5868 5867 5865 5864 5863 5861 5859 5857 5855 5852 5850 5847 5844 5840 5837 5834 5830 5827 5824 5820 5817 5814 5811 5809 5807 5805 5804 5804 5804 5805 5806 5808 5810 5813 5816
5869 5870 5870 5871 5871 5871 5871 5871 5870 5870 5869 5868 5867 5867 5866 5865 5864 5863 5862 5860 5858 5856 5854 5851 5848 5845 5841 5838 5834 5831 5827 5824 5820 5816 5812 5809 5806 5803 5801 5800 5799 5798 5798 5799 5800 5801 5804 5806 5810
5865 5867 5867 5868 5868 5868 5869 5869 5868 5868 5867 5866 5866 5865 5865 5864 5863 5862 5860 5859 5857 5855 5852 5849 5846 5843 5839 5835 5832 5828 5824 5820 5816 5812 5808 5804 5801 5798 5796 5794 5792 5792 5791 5792 5793 5795 5797 5800 5803
5861 5863 5864 5865 5865 5866 5868 5867 5866 5865 5865 5864 5864 5863 5863 5862 5861 5860 5859 5857 5855 5853 5851 5848 5844 5841 5837 5833 5829 5826 5822 5817 5813 5809 5804 5800 5796 5793 5791 5788 5787 5786 5785 5786 5787 5788 5791 5793 5797
5858 5860 5861 5862 5862 5863 5864 5864 5863 5863 5863 5863 5862 5862 5862 5861 5860 5859 5857 5856 5854 5852 5849 5846 5843 5839 5835 5831 5827 5823 5819 5815 5810 5805 5801 5796 5792 5789 5786 5783 5781 5780 5779 5780 5781 5782 5784 5787 5790
5855 5856 5858 5858 5859 5860 5860 5861 5861 5861 5861 5860 5860 5860 5860 5859 5859 5857 5856 5854 5853 5850 5847 5844 5841 5837 5833 5829 5825 5821 5817 5812 5807 5803 5798 5793 5789 5785 5781 5778 5776 5775 5774 5774 5775 5776 5778 5780 5783
5850 5852 5854 5855 5855 5857 5857 5858 5858 5858 5858 5858 5858 5858 5858 5858 5857 5856 5854 5853 5851 5849 5846 5843 5839 5836 5831 5827 5823 5819 5814 5810 5805 5800 5795 5790 5785 5781 5777 5774 5772 5770 5769 5768 5769 5770 5772 5774 5777
5847 5849 5851 5852 5852 5854 5855 5855 5855 5856 5856 5856 5856 5856 5856 5856 5855 5854 5853 5851 5850 5847 5845 5842 5838 5834 5830 5825 5821 5817 5812 5808 5802 5797 5792 5787 5782 5778 5774 5770 5768 5765 5764 5763 5764 5765 5766 5768 5770
5844 5846 5847 5849 5850 5851 5853 5854 5853 5854 5854 5854 5854 5854 5854 5854 5853 5853 5851 5850 5848 5846 5843 5840 5837 5833 5828 5824 5819 5815 5810 5806 5800 5795 5790 5785 5779 5775 5771 5767 5764 5761 5760 5759 5759 5760 5761 5763 5765
5841 5843 5844 5846 5848 5849 5851 5851 5851 5851 5852 5852 5852 5852 5852 5852 5852 5851 5850 5848 5847 5844 5842 5839 5835 5831 5827 5823 5818 5814 5809 5804 5799 5793 5788 5783 5777 5772 5768 5764 5761 5758 5756 5755 5755 5755 5756 5758 5760
5838 5840 5842 5844 5845 5847 5848 5849 5850 5849 5850 5850 5850 5850 5850 5850 5850 5849 5848 5847 5845 5843 5840 5838 5834 5830 5826 5822 5817 5812 5808 5802 5797 5792 5787 5781 5776 5771 5766 5761 5758 5755 5753 5752 5751 5752 5753 5754 5756
5836 5838 5840 5841 5843 5845 5846 5847 5848 5847 5848 5848 5848 5848 5848 5848 5848 5847 5846 5845 5843 5841 5839 5836 5833 5829 5825 5821 5816 5812 5807 5801 5796 5791 5785 5780 5775 5769 5764 5759 5756 5753 5751 5749 5749 5749 5750 5750 5752
5834 5837 5839 5841 5842 5843 5844 5844 5846 5845 5845 5846 5846 5846 5846 5846 5845 5845 5844 5843 5842 5840 5837 5835 5832 5828 5824 5820 5816 5811 5806 5801 5795 5790 5785 5779 5774 5769 5764 5759 5755 5752 5749 5748 5747 5747 5747 5748 5749
5832 5835 5838 5840 5841 5841 5841 5842 5843 5843 5843 5843 5844 5844 5844 5844 5843 5843 5842 5841 5840 5838 5836 5833 5830 5827 5823 5819 5815 5810 5805 5800 5795 5790 5784 5779 5774 5769 5764 5759 5755 5752 5749 5747 5746 5745 5744 5745 5746
5831 5833 5835 5837 5838 5839 5839 5840 5840 5840 5840 5841 5841 5841 5841 5841 5841 5841 5840 5839 5838 5836 5834 5832 5829 5826 5822 5818 5814 5810 5805 5800 5795 5789 5784 5779 5774 5769 5764 5760 5756 5752 5749 5746 5745 5743 5743 5743 5744
5830 5831 5833 5835 5835 5837 5837 5838 5838 5838 5838 5838 5838 5839 5839 5839 5839 5839 5838 5837 5836 5834 5833 5830 5828 5825 5821 5818 5813 5809 5804 5800 5795 5789 5784 5779 5774 5769 5764 5760 5756 5752 5749 5746 5744 5742 5741 5741 5742
5828 5830 5831 5832 5833 5834 5835 5837 5835 5835 5835 5835 5836 5836 5836 5836 5836 5836 5836 5835 5834 5832 5831 5828 5826 5823 5820 5816 5813 5809 5804 5800 5795 5790 5785 5780 5775 5770 5765 5760 5756 5752 5749 5746 5743 5741 5740 5740 5740
5826 5827 5829 5831 5831 5831 5832 5835 5832 5832 5832 5832 5833 5833 5833 5834 5834 5833 5833 5833 5832 5830 5829 5827 5824 5822 5819 5815 5812 5808 5804 5799 5795 5790 5785 5780 5775 5770 5766 5761 5757 5753 5749 5746 5743 5741 5740 5739 5739